This is the latest recevied weather packets stored in our database for station/object OK2ZA-6. If no packets are shown the sender has not sent any weather packets the latest 10 day(s).
| Time | Temp. | Humidity | Pressure | Rain* | Wind** | Luminosity | Snow |
|---|---|---|---|---|---|---|---|
| 1777564204 | 13.89° C | 30% | 1026.9 hPa | 0 mm | - | - | - |
| 1777563604 | 13.33° C | 30% | 1026.9 hPa | 0 mm | - | - | - |
| 1777563004 | 12.78° C | 31% | 1026.8 hPa | 0 mm | - | - | - |
| 1777562405 | 12.78° C | 31% | 1027 hPa | 0 mm | - | - | - |
| 1777561804 | 13.89° C | 30% | 1026.9 hPa | 0 mm | - | - | - |
| 1777561204 | 13.89° C | 30% | 1027 hPa | 0 mm | - | - | - |
| 1777560604 | 13.89° C | 31% | 1027.2 hPa | 0 mm | - | - | - |
| 1777560004 | 13.89° C | 31% | 1027.2 hPa | 0 mm | - | - | - |
| 1777559404 | 13.33° C | 30% | 1027.2 hPa | 0 mm | - | - | - |
| 1777558804 | 13.89° C | 29% | 1027.4 hPa | 0 mm | - | - | - |
| 1777558204 | 13.33° C | 32% | 1027.4 hPa | 0 mm | - | - | - |
| 1777557604 | 12.78° C | 31% | 1027.6 hPa | 0 mm | - | - | - |
| 1777557004 | 12.78° C | 32% | 1027.6 hPa | 0 mm | - | - | - |
| 1777556404 | 13.89° C | 29% | 1027.6 hPa | 0 mm | - | - | - |
| 1777555804 | 13.89° C | 31% | 1027.8 hPa | 0 mm | - | - | - |
| 1777555204 | 13.33° C | 31% | 1027.8 hPa | 0 mm | - | - | - |
| 1777554604 | 13.33° C | 31% | 1027.9 hPa | 0 mm | - | - | - |
| 1777554005 | 13.33° C | 32% | 1027.9 hPa | 0 mm | - | - | - |
| 1777553404 | 12.78° C | 33% | 1028.1 hPa | 0 mm | - | - | - |
| 1777552804 | 12.22° C | 32% | 1028.3 hPa | 0 mm | - | - | - |
| 1777552204 | 12.78° C | 31% | 1028.3 hPa | 0 mm | - | - | - |
| 1777551604 | 12.78° C | 33% | 1028.4 hPa | 0 mm | - | - | - |
| 1777551004 | 13.33° C | 33% | 1028.4 hPa | 0 mm | - | - | - |
| 1777550404 | 12.22° C | 31% | 1028.4 hPa | 0 mm | - | - | - |
| 1777549804 | 12.22° C | 34% | 1028.6 hPa | 0 mm | - | - | - |
* Rain latest hour (hover to see other rain measurements)
** Current wind speed in m/s (hover to see current wind gust speed)